Left ArrowRight Arrow

Hourly Observations for December 1, 2020

Temp ( °F °C ) Dew Point ( °F °C ) Humidity (%) Winds ( mph kmh ) Pressure ( in mb ) Visibility ( mi km ) Precip ( " mm )
12:53 am 00:53 Clear 74 23.3 62 16.7 67 67 E 6 9 30.01 1016 10 16 0.00 0.00
1:53 am 01:53 Clear 73 22.8 61 16.1 66 66 E 6 9 30.00 1016 10 16 0.00 0.00
2:53 am 02:53 Clear 73 22.8 61 16.1 66 66 E 7 11 29.98 1015 10 16 0.00 0.00
3:53 am 03:53 Clear 72 22.2 61 16.1 68 68 E 7 11 29.98 1015 10 16 0.00 0.00
4:53 am 04:53 Clear 72 22.2 62 16.7 71 71 E 6 9 29.98 1015 10 16 0.00 0.00
5:53 am 05:53 Partly Cloudy 71 21.7 61 16.1 71 71 E 7 11 29.99 1016 10 16 0.00 0.00
6:53 am 06:53 Partly Cloudy 71 21.7 60 15.6 68 68 ENE 6 9 29.99 1016 10 16 0.00 0.00
7:53 am 07:53 Partly Cloudy 75 23.9 60 15.6 60 60 ENE 5 7 30.01 1016 10 16 0.00 0.00
8:53 am 08:53 Partly Cloudy 80 26.7 64 17.8 58 58 NE 3 6 30.03 1017 10 16 0.00 0.00
9:53 am 09:53 Partly Cloudy 81 27.2 65 18.3 58 58 WNW 7 11 30.01 1016 10 16 0.00 0.00
10:53 am 10:53 Partly Cloudy 81 27.2 65 18.3 58 58 WNW 10 17 30.00 1016 10 16 0.00 0.00
11:53 am 11:53 Partly Cloudy 83 28.3 64 17.8 53 53 NW 12 19 30.00 1016 10 16 0.00 0.00
12:53 pm 12:53 Partly Cloudy 83 28.3 65 18.3 55 55 NW 13 20 29.96 1015 10 16 0.00 0.00
1:53 pm 13:53 Partly Cloudy 84 28.9 62 16.7 48 48 NW 10 17 29.94 1014 10 16 0.00 0.00
2:53 pm 14:53 Partly Cloudy 83 28.3 61 16.1 48 48 W 8 13 29.93 1013 10 16 0.00 0.00
3:53 pm 15:53 Partly Cloudy 82 27.8 62 16.7 51 51 W 8 13 29.93 1013 10 16 0.00 0.00
4:53 pm 16:53 Partly Cloudy 82 27.8 63 17.2 53 53 W 8 13 29.94 1014 10 16 0.00 0.00
5:53 pm 17:53 Clear 80 26.7 63 17.2 56 56 SW 6 9 29.95 1014 10 16 0.00 0.00
6:53 pm 18:53 Clear 80 26.7 63 17.2 56 56 S 5 7 29.97 1015 10 16 0.00 0.00
7:53 pm 19:53 Clear 76 24.4 62 16.7 62 62 E 7 11 29.99 1016 10 16 0.00 0.00
8:53 pm 20:53 Clear 76 24.4 62 16.7 62 62 E 5 7 30.01 1016 10 16 0.00 0.00
9:53 pm 21:53 Clear 75 23.9 62 16.7 64 64 E 5 7 30.01 1016 10 16 0.00 0.00
10:53 pm 22:53 Clear 75 23.9 62 16.7 64 64 NE 5 7 30.01 1016 10 16 0.00 0.00
11:53 pm 23:53 Clear 73 22.8 60 15.6 64 64 ENE 7 11 30.01 1016 10 16 0.00 0.00

Powered by Vaisala Xweather